Location: Macksville High School
(37.9611°N, 99.9654°W)
Time: 04:51:47
(UTC+00:00)

Meteor 1-31 Rocket - Pass Details

Date: 27 February 2020
Orbit: 522 x 546 km, 97.6° (Epoch: 07 April)

Event Time Altitude Azimuth Distance (km) Brightness Sun altitude
Rises 12:04:42 0° 357° (N) 2,673 6.3 -14.6°
Reaches altitude 10° 12:07:07 10° 342° (NNW) 1,783 5.2 -14.1°
Maximum altitude 12:10:09 23° 290° (WNW) 1,174 3.9 -13.5°
Enters shadow 12:10:40 22° 278° (W) 1,195 3.9 -13.4°
